{"data":{"norad_id":61861,"epoch":"2026-05-25T01:02:48.414624Z","epoch_age_seconds":68349,"freshness":"FRESH","line1":"1 61861U 24202S   26145.04361591 -.00001038  00000+0 -28196-4 0  9992","line2":"2 61861  43.0017 166.9014 0001165 303.0799  56.9940 15.27576542 87002","mean_motion":15.27576542,"eccentricity":0.0001165,"inclination_deg":43.0017,"raan_deg":166.9014,"arg_perigee_deg":303.0799,"mean_anomaly_deg":56.994,"bstar":-2.8196e-5,"rev_number":8700,"period_min":94.266962106832,"perigee_km":482.26012116871,"apogee_km":483.85877994169,"semimajor_km":6861.1964505552,"source":"CELESTRAK","updated_at":"2026-05-25T13:38:19.452991Z"}}